CW1675 Weather Reports


Display with metric or nautical units.
time (UTC)temp
F
wind
direction
speed
MPH
gust
MPH
rain 1hr
in
rain 24hr
in
rain mn
in
humidity
%
barometer
mb
20260508144313 63 27 2.0 13.0 0.00 0.00 0.00 50 1017.7
20260508143813 63 47 3.0 5.0 0.00 0.00 0.00 52 1017.8
20260508142814 63 52 3.0 9.0 0.00 0.00 0.00 51 1017.8
20260508140814 63 96 2.0 6.0 0.00 0.00 0.00 51 1018.1
20260508135314 63 59 2.0 5.0 0.00 0.00 0.00 51 1018.1
20260508133314 62 100 2.0 5.0 0.00 0.00 0.00 53 1018.1
20260508132313 62 137 2.0 6.0 0.00 0.00 0.00 53 1018.1
20260508131815 62 99 2.0 6.0 0.00 0.00 0.00 53 1018.1
20260508125313 61 144 2.0 5.0 0.00 0.00 0.00 55 1018.2
20260508124314 61 71 1.0 7.0 0.00 0.00 0.00 55 1018.2
20260508123814 61 81 1.0 7.0 0.00 0.00 0.00 56 1018.2
20260508123313 61 297 1.0 0.0 0.00 0.00 0.00 56 1018.2
20260508122314 60 127 0.0 2.0 0.00 0.00 0.00 60 1018.2
20260508121815 60 129 1.0 2.0 0.00 0.00 0.00 59 1018.2
20260508115314 61 131 1.0 5.0 0.00 0.00 0.00 54 1018.2
20260508114814 61 60 2.0 5.0 0.00 0.00 0.00 58 1018.2
20260508114314 61 36 2.0 2.0 0.00 0.00 0.00 59 1018.2
20260508113314 60 60 2.0 5.0 0.00 0.00 0.00 59 1018.2
20260508112814 61 87 2.0 6.0 0.00 0.00 0.00 59 1018.2
20260508111813 60 47 2.0 6.0 0.00 0.00 0.00 60 1018.3
20260508110815 60 90 2.0 3.0 0.00 0.00 0.00 63 1018.2
20260508104813 60 329 0.0 5.0 0.00 0.00 0.00 63 1018.2
20260508104314 60 71 0.0 6.0 0.00 0.00 0.00 64 1018.2
20260508103814 60 66 0.0 3.0 0.00 0.00 0.00 65 1018.3
20260508102814 60 19 0.0 2.0 0.00 0.00 0.00 64 1018.3
20260508102314 60 320 0.0 3.0 0.00 0.00 0.00 64 1018.3
20260508100814 60 312 0.0 6.0 0.00 0.00 0.00 62 1018.4
20260508095813 60 73 1.0 2.0 0.00 0.00 0.00 62 1018.4
20260508095313 60 80 1.0 2.0 0.00 0.00 0.00 62 1018.4
20260508094814 59 14 2.0 5.0 0.00 0.00 0.00 61 1018.4
20260508094313 59 307 2.0 5.0 0.00 0.00 0.00 63 1018.4
20260508093814 59 307 1.0 5.0 0.00 0.00 0.00 62 1018.3
20260508092814 59 307 2.0 5.0 0.00 0.00 0.00 62 1018.3
20260508092314 59 314 2.0 3.0 0.00 0.00 0.00 62 1018.3
20260508091813 59 314 2.0 3.0 0.00 0.00 0.00 64 1018.3
20260508091314 58 314 2.0 5.0 0.00 0.00 0.00 66 1018.3
20260508090814 58 322 2.0 5.0 0.00 0.00 0.00 67 1018.3
20260508085314 58 318 2.0 5.0 0.00 0.00 0.00 72 1018.3
20260508084814 57 308 2.0 5.0 0.00 0.00 0.00 72 1018.3
20260508083813 57 303 2.0 5.0 0.00 0.00 0.00 75 1018.3
20260508082814 56 207 2.0 3.0 0.00 0.00 0.00 82 1018.3
20260508082314 55 207 2.0 5.0 0.00 0.00 0.00 83 1018.2
20260508081814 55 207 0.0 5.0 0.00 0.00 0.00 83 1018.2
20260508081313 55 161 0.0 5.0 0.00 0.00 0.00 84 1018.2
20260508074813 53 184 1.0 2.0 0.00 0.00 0.00 90 1018.3
20260508073818 52 183 0.0 5.0 0.00 0.00 0.00 91 1018.3
20260508073322 52 185 0.0 2.0 0.00 0.00 0.00 92 1018.3
20260508072814 52 17 0.0 0.0 0.00 0.00 0.00 93 1018.3
20260508071813 51 309 0.0 2.0 0.00 0.00 0.00 93 1018.3
20260508071313 51 307 0.0 0.0 0.00 0.00 0.00 93 1018.3
20260508061313 49 358 0.0 0.0 0.00 0.00 0.00 97 1017.8
20260508060814 49 358 0.0 1.0 0.00 0.00 0.00 97 1017.8
20260508060313 49 358 0.0 2.0 0.00 0.00 0.00 98 1017.8
20260508055324 48 135 0.0 2.0 0.00 0.00 0.00 98 1017.8
20260508054813 48 135 0.0 0.0 0.00 0.00 0.00 98 1017.8
20260508053814 48 135 0.0 0.0 0.00 0.00 0.00 98 1017.8
20260508052813 48 347 0.0 3.0 0.00 0.00 0.00 98 1017.8
20260508051813 47 109 0.0 2.0 0.00 0.00 0.00 98 1017.7
20260508051313 47 113 0.0 2.0 0.00 0.00 0.00 98 1017.7
20260508050314 47 113 0.0 1.0 0.00 0.00 0.00 98 1017.6
20260508045813 47 113 0.0 2.0 0.00 0.00 0.00 98 1017.6
20260508044813 47 115 0.0 2.0 0.00 0.00 0.00 98 1017.6
20260508043812 47 115 0.0 0.0 0.00 0.00 0.00 97 1017.5
20260508041313 47 114 0.0 1.0 0.00 0.00 0.00 97 1017.4
20260508040813 47 114 0.0 0.0 0.00 0.00 0.00 97 1017.4
20260508040313 47 114 0.0 2.0 0.00 0.00 0.00 97 1017.4
20260508034813 47 114 0.0 0.0 0.00 0.00 0.00 97 1017.4
20260508032313 47 114 0.0 0.0 0.00 0.00 0.00 97 1017.4
20260508031813 47 114 0.0 0.0 0.00 0.00 0.00 97 1017.4
20260508031313 47 114 0.0 2.0 0.00 0.00 0.00 97 1017.4
20260508030812 47 42 0.0 0.0 0.00 0.00 0.00 97 1017.4
20260508030313 47 42 0.0 0.0 0.00 0.00 0.00 97 1017.4
20260508025813 47 42 0.0 0.0 0.00 0.00 0.00 97 1017.4
20260508024313 47 42 0.0 0.0 0.00 0.00 0.00 97 1017.5
20260508022814 46 42 0.0 0.0 0.00 0.00 0.00 97 1017.5
20260508021313 46 42 0.0 0.0 0.00 0.00 0.00 97 1017.4
20260508013314 46 42 0.0 0.0 0.00 0.00 0.00 96 1017.4
20260508012312 46 42 0.0 0.0 0.00 0.00 0.00 96 1017.4
20260508010814 46 42 0.0 2.0 0.00 0.00 0.00 96 1017.3
20260508010313 47 42 0.0 2.0 0.00 0.00 0.00 96 1017.3
20260508005812 47 42 1.0 0.0 0.00 0.00 0.00 96 1017.3
20260508004812 47 42 0.0 2.0 0.00 0.00 0.00 96 1017.4
20260508003814 47 42 0.0 0.0 0.00 0.00 0.00 96 1017.5
20260508002313 47 42 1.0 3.0 0.00 0.00 0.00 95 1017.5
20260508001313 47 42 1.0 3.0 0.00 0.00 0.00 95 1017.5
20260507235812 47 42 0.0 2.0 0.00 0.00 0.00 95 1017.4
20260507233822 47 42 0.0 2.0 0.00 0.00 0.00 95 1017.7
20260507232813 48 42 0.0 0.0 0.00 0.00 0.00 95 1017.7
20260507222814 49 42 0.0 2.0 0.00 0.00 0.00 94 1017.8
20260507220814 49 42 0.0 0.0 0.00 0.00 0.00 94 1017.8
20260507220314 49 42 0.0 2.0 0.00 0.00 0.00 94 1017.8
20260507215813 49 42 0.0 2.0 0.00 0.00 0.00 94 1017.8
20260507215313 49 42 0.0 0.0 0.00 0.00 0.00 93 1017.8
20260507213314 50 42 0.0 1.0 0.00 0.00 0.00 93 1017.7
20260507212813 50 42 0.0 1.0 0.00 0.00 0.00 93 1017.7
20260507211813 50 42 0.0 0.0 0.00 0.00 0.00 92 1017.7
20260507205813 50 42 0.0 0.0 0.00 0.00 0.00 91 1017.6
20260507204313 51 42 0.0 0.0 0.00 0.00 0.00 91 1017.5
20260507203313 51 42 0.0 0.0 0.00 0.00 0.00 90 1017.4
20260507202814 51 42 0.0 0.0 0.00 0.00 0.00 90 1017.4
20260507201813 51 42 0.0 0.0 0.00 0.00 0.00 90 1017.3
20260507201312 51 42 0.0 0.0 0.00 0.00 0.00 90 1017.3
20260507200813 51 42 0.0 0.0 0.00 0.00 0.00 90 1017.2
20260507195312 52 42 1.0 0.0 0.00 0.00 0.00 89 1017.1
20260507194315 52 42 0.0 2.0 0.00 0.00 0.00 88 1017.1
20260507193817 52 42 0.0 0.0 0.00 0.00 0.00 88 1016.9
20260507193318 52 42 0.0 0.0 0.00 0.00 0.00 87 1016.9
20260507192813 52 42 0.0 2.0 0.00 0.00 0.00 86 1016.9
20260507192312 52 42 0.0 0.0 0.00 0.00 0.00 86 1016.9
20260507191312 53 42 0.0 0.0 0.00 0.00 0.00 85 1016.9
20260507190313 53 42 0.0 0.0 0.00 0.00 0.00 85 1017.0
20260507185813 53 42 0.0 0.0 0.00 0.00 0.00 85 1017.0
20260507185313 54 42 0.0 0.0 0.00 0.00 0.00 85 1016.8
20260507182813 55 42 0.0 0.0 0.00 0.00 0.00 81 1016.8
20260507181813 55 42 0.0 0.0 0.00 0.00 0.00 80 1016.8
20260507181312 55 42 0.0 0.0 0.00 0.00 0.00 81 1016.8
20260507180813 56 42 0.0 0.0 0.00 0.00 0.00 81 1016.7
20260507180313 56 42 0.0 0.0 0.00 0.00 0.00 79 1016.7
20260507175812 56 42 0.0 0.0 0.00 0.00 0.00 78 1016.7
20260507173813 56 42 0.0 2.0 0.00 0.00 0.00 77 1016.6
20260507173313 56 92 0.0 0.0 0.00 0.00 0.00 76 1016.6
20260507172813 57 92 0.0 0.0 0.00 0.00 0.00 75 1016.6
20260507172313 57 92 0.0 2.0 0.00 0.00 0.00 76 1016.5
20260507170814 57 92 0.0 0.0 0.00 0.00 0.00 76 1016.6
20260507170313 57 92 0.0 2.0 0.00 0.00 0.00 73 1016.6
20260507165813 57 92 0.0 2.0 0.00 0.00 0.00 71 1016.6
20260507165313 57 91 0.0 2.0 0.00 0.00 0.00 64 1016.5
20260507164813 57 92 0.0 2.0 0.00 0.00 0.00 67 1016.5
20260507163813 57 13 0.0 0.0 0.00 0.00 0.00 67 1016.5
20260507163313 58 13 0.0 0.0 0.00 0.00 0.00 67 1016.5
20260507162814 58 13 0.0 1.0 0.00 0.00 0.00 68 1016.5
20260507162314 58 13 0.0 0.0 0.00 0.00 0.00 61 1016.5
20260507161813 58 13 1.0 2.0 0.00 0.00 0.00 59 1016.5
20260507160813 58 24 0.0 5.0 0.00 0.00 0.00 58 1016.5
20260507155318 58 11 0.0 3.0 0.00 0.00 0.00 60 1016.5
20260507150339 58 305 2.0 6.0 0.00 0.00 0.00 61 1016.4
20260507145339 58 12 2.0 5.0 0.00 0.00 0.00 60 1016.4